Weather History for Mineola, TX

Change the Weather History Date:

Monday, November 4, 2013

  Actual Average (KTYR) Record (KTYR)
Temperature  
Mean Temperature 56 °F 60 °F  
Max Temperature 60 °F 70 °F 86 °F (1987)
Min Temperature 51 °F 50 °F 24 °F (1991)
Degree Days  
Heating Degree Days 10 6  
Month to date heating degree days 23  
Since 1 July heating degree days 100  
Cooling Degree Days 0 1  
Month to date cooling degree days 6  
Year to date cooling degree days 2399  
Growing Degree Days 6 (Base 50)    
Moisture  
Dew Point 54 °F    
Average Humidity 92    
Maximum Humidity 100    
Minimum Humidity 63    
Precipitation  
Precipitation 0.08 in 0.15 in 2.00 in (1925)
Month to date precipitation 0.60  
Year to date precipitation 38.05  
Snow  
Snow 0.00 in - - ()
Month to date snowfall  
Since 1 July snowfall  
Since 1 September snowfall  
Snow Depth -    
Sea Level Pressure  
Sea Level Pressure 30.10 in    
Wind  
Wind Speed 3 mph (SE)    
Max Wind Speed 8 mph    
Max Gust Speed -    
Visibility 5 miles    
Events Rain    
T = Trace of Precipitation, MM = Missing Value Source: NWS Daily Summary

Daily Weather History Graph

Daily Weather History Graph

Search for Another Location

Airport:

Trip Planner

Search our weather history database for the weather conditions in past years. The results will help you decide how hot, cold, wet, or windy it might be!

Date:

Astronomy

Nov. 04, 2013 Rise Set
Actual Time 6:42 AM CST 5:28 PM CST
Civil Twilight 6:16 AM CST 5:53 PM CST
Nautical Twilight 5:47 AM CST 6:23 PM CST
Astronomical Twilight 5:18 AM CST 6:51 PM CST
Moon 7:50 AM CST (11/4) 6:37 PM CST (11/4)
Length of Visible Light 11h 36m
Length of Day
10h 45m
New Moon, 2% of the Moon is Illuminated
Nov 4
New Moon
Nov 9
First Quarter
Nov 17
Full
Nov 25
Last Quarter
Dec 2
New

Hourly Weather History & Observations

Time (CST) Temp. Dew Point Humidity Pressure Visibility Wind Dir Wind Speed Gust Speed Precip Events Conditions
12:15 AM 55.4 °F 44.6 °F 67% 30.05 in 10.0 mi SSE 6.9 mph - N/A   Clear
12:35 AM 55.4 °F 44.6 °F 67% 30.06 in 10.0 mi SE 3.5 mph - N/A   Clear
12:55 AM 55.4 °F 44.6 °F 67% 30.07 in 10.0 mi SSE 6.9 mph - N/A   Clear
1:15 AM 57.2 °F 44.6 °F 63% 30.08 in 10.0 mi South 3.5 mph - N/A   Clear
1:35 AM 57.2 °F 44.6 °F 63% 30.08 in 10.0 mi SSE 3.5 mph - N/A   Clear
1:55 AM 57.2 °F 44.6 °F 63% 30.07 in 10.0 mi SSE 4.6 mph - N/A   Clear
2:15 AM 57.2 °F 44.6 °F 63% 30.07 in 10.0 mi SE 5.8 mph - N/A   Clear
2:35 AM 57.2 °F 44.6 °F 63% 30.08 in 10.0 mi SSE 4.6 mph - N/A   Clear
2:55 AM 57.2 °F 44.6 °F 63% 30.09 in 10.0 mi Calm Calm - N/A   Clear
3:15 AM 57.2 °F 44.6 °F 63% 30.10 in 10.0 mi SSE 4.6 mph - N/A   Clear
3:35 AM 55.4 °F 44.6 °F 67% 30.09 in 10.0 mi Calm Calm - N/A   Clear
3:55 AM 55.4 °F 44.6 °F 67% 30.08 in 9.0 mi Calm Calm - N/A Rain Rain
4:15 AM 53.6 °F 50.0 °F 88% 30.09 in 5.0 mi Calm Calm - N/A Rain Light Rain
4:35 AM 51.8 °F 50.0 °F 94% 30.10 in 10.0 mi Calm Calm - N/A   Partly Cloudy
4:55 AM 51.8 °F 50.0 °F 94% 30.09 in 10.0 mi Calm Calm - N/A   Clear
5:15 AM 51.8 °F 50.0 °F 94% 30.09 in 10.0 mi Calm Calm - N/A   Clear
5:35 AM 51.8 °F 50.0 °F 94% 30.10 in 10.0 mi Calm Calm - N/A   Scattered Clouds
5:55 AM 51.8 °F 50.0 °F 94% 30.09 in 10.0 mi SE 5.8 mph - N/A   Mostly Cloudy
6:15 AM 51.8 °F 50.0 °F 94% 30.07 in 10.0 mi SE 6.9 mph - N/A   Clear
6:35 AM 53.6 °F 48.2 °F 82% 30.08 in 10.0 mi SE 8.1 mph - N/A   Clear
6:55 AM 53.6 °F 48.2 °F 82% 30.10 in 9.0 mi SE 6.9 mph - N/A   Clear
7:15 AM 53.6 °F 48.2 °F 82% 30.10 in 7.0 mi SE 6.9 mph - N/A   Light Drizzle
7:35 AM 53.6 °F 48.2 °F 82% 30.10 in 6.0 mi SE 5.8 mph - N/A   Drizzle
7:55 AM 53.6 °F 50.0 °F 88% 30.12 in 5.0 mi SE 5.8 mph - N/A   Light Drizzle
8:15 AM 53.6 °F 50.0 °F 88% 30.13 in 6.0 mi SE 4.6 mph - N/A   Drizzle
8:35 AM 53.6 °F 51.8 °F 94% 30.14 in 4.0 mi Calm Calm - N/A Rain Light Rain
8:55 AM 53.6 °F 51.8 °F 94% 30.15 in 3.0 mi SE 4.6 mph - N/A Rain Rain
9:15 AM 53.6 °F 51.8 °F 94% 30.15 in 4.0 mi ESE 4.6 mph - N/A   Light Drizzle
9:35 AM 53.6 °F 51.8 °F 94% 30.16 in 4.0 mi SE 3.5 mph - N/A   Drizzle
9:55 AM 53.6 °F 53.6 °F 100% 30.16 in 2.5 mi ESE 3.5 mph - N/A   Drizzle
10:15 AM 53.6 °F 53.6 °F 100% 30.16 in 5.0 mi SE 3.5 mph - N/A   Mostly Cloudy
10:35 AM 53.6 °F 53.6 °F 100% 30.15 in 4.0 mi SE 3.5 mph - N/A   Mostly Cloudy
10:55 AM 55.4 °F 53.6 °F 94% 30.15 in 3.0 mi SE 3.5 mph - N/A   Drizzle
11:15 AM 55.4 °F 53.6 °F 94% 30.14 in 4.0 mi ESE 3.5 mph - N/A   Drizzle
11:35 AM 55.4 °F 55.4 °F 100% 30.14 in 5.0 mi ESE 3.5 mph - N/A   Drizzle
11:55 AM 55.4 °F 55.4 °F 100% 30.13 in 3.0 mi Calm Calm - N/A Rain Rain
12:15 PM 55.4 °F 55.4 °F 100% 30.12 in 2.5 mi SE 3.5 mph - N/A Rain Rain
12:35 PM 55.4 °F 55.4 °F 100% 30.11 in 3.0 mi Calm Calm - 0.01 in   Drizzle
12:55 PM 57.2 °F 55.4 °F 94% 30.10 in 3.0 mi Calm Calm - 0.02 in   Drizzle
1:15 PM 57.2 °F 57.2 °F 100% 30.10 in 3.0 mi Calm Calm - N/A   Mostly Cloudy
1:35 PM 57.2 °F 57.2 °F 100% 30.10 in 4.0 mi Calm Calm - N/A   Mostly Cloudy
1:55 PM 57.2 °F 57.2 °F 100% 30.10 in 5.0 mi Calm Calm - N/A   Mostly Cloudy
2:15 PM 57.2 °F 57.2 °F 100% 30.09 in 4.0 mi Calm Calm - N/A   Drizzle
2:35 PM 57.2 °F 57.2 °F 100% 30.08 in 4.0 mi Calm Calm - N/A   Partly Cloudy
2:55 PM 57.2 °F 57.2 °F 100% 30.08 in 5.0 mi Calm Calm - N/A   Scattered Clouds
3:15 PM 59.0 °F 59.0 °F 100% 30.07 in 5.0 mi Calm Calm - N/A   Partly Cloudy
3:35 PM 60.8 °F 60.8 °F 100% 30.08 in 5.0 mi Calm Calm - N/A   Partly Cloudy
3:55 PM 60.8 °F 60.8 °F 100% 30.07 in 4.0 mi Calm Calm - N/A   Partly Cloudy
4:15 PM 60.8 °F 60.8 °F 100% 30.07 in 4.0 mi Calm Calm - N/A   Partly Cloudy
4:35 PM 60.8 °F 60.8 °F 100% 30.08 in 2.0 mi Calm Calm - N/A   Scattered Clouds
4:55 PM 60.8 °F 60.8 °F 100% 30.08 in 3.0 mi Calm Calm - N/A   Drizzle
5:15 PM 60.8 °F 60.8 °F 100% 30.09 in 1.5 mi Calm Calm - N/A   Mostly Cloudy
5:35 PM 60.8 °F 60.8 °F 100% 30.09 in 1.5 mi Calm Calm - 0.01 in Rain Rain
5:55 PM 60.8 °F 60.8 °F 100% 30.10 in 1.8 mi Calm Calm - 0.01 in   Overcast
6:15 PM 60.8 °F 60.8 °F 100% 30.10 in 1.8 mi Calm Calm - 0.01 in Rain Rain
6:35 PM 60.8 °F 60.8 °F 100% 30.10 in 2.0 mi Calm Calm - 0.01 in Rain Rain
6:55 PM 60.8 °F 60.8 °F 100% 30.11 in 3.0 mi Calm Calm - 0.01 in   Drizzle
7:15 PM 60.8 °F 60.8 °F 100% 30.11 in 3.0 mi Calm Calm - 0.01 in Rain Rain
7:35 PM 60.8 °F 60.8 °F 100% 30.11 in 2.0 mi Calm Calm - 0.02 in Rain Light Rain
7:55 PM 60.8 °F 60.8 °F 100% 30.11 in 3.0 mi Calm Calm - 0.02 in   Overcast
8:15 PM 60.8 °F 60.8 °F 100% 30.11 in 3.0 mi Calm Calm - N/A   Drizzle
8:35 PM 60.8 °F 60.8 °F 100% 30.12 in 4.0 mi Calm Calm - N/A   Overcast
8:55 PM 60.8 °F 60.8 °F 100% 30.11 in 5.0 mi Calm Calm - N/A   Overcast
9:15 PM 60.8 °F 60.8 °F 100% 30.11 in 4.0 mi Calm Calm - N/A   Overcast
9:35 PM 60.8 °F 60.8 °F 100% 30.12 in 4.0 mi Calm Calm - N/A   Overcast
9:55 PM 60.8 °F 60.8 °F 100% 30.12 in 3.0 mi Calm Calm - 0.01 in Rain Rain
10:15 PM 60.8 °F 60.8 °F 100% 30.12 in 4.0 mi Calm Calm - N/A   Overcast
10:35 PM 59.0 °F 59.0 °F 100% 30.13 in 2.5 mi Calm Calm - N/A   Mostly Cloudy
10:55 PM 60.8 °F 60.8 °F 100% 30.12 in 2.0 mi Calm Calm - N/A   Drizzle
11:15 PM 60.8 °F 60.8 °F 100% 30.12 in 1.5 mi Calm Calm - N/A   Drizzle
11:35 PM 60.8 °F 60.8 °F 100% 30.12 in 1.5 mi Calm Calm - N/A   Drizzle
11:55 PM 60.8 °F 60.8 °F 100% 30.12 in 1.8 mi Calm Calm - 0.01 in   Overcast